FW0428 Weather Reports


Display with metric or nautical units.
time (UTC)temp
F
wind
direction
speed
MPH
gust
MPH
rain 1hr
in
rain 24hr
in
rain mn
in
humidity
%
barometer
mb
20260904204554 99 129 0.0 3.0 0.00 0.00 0.00 49 1010.8
20260904203138 99 76 0.0 3.0 0.00 0.00 0.00 46 1011.0
20260904201642 99 98 0.0 3.0 0.00 0.00 0.00 47 1011.3
20260904200129 97 285 0.0 2.0 0.00 0.00 0.00 48 1011.7
20260904194610 97 216 0.0 3.0 0.00 0.00 0.00 49 1011.8
20260904180012 94 96 0.0 2.0 0.00 0.00 0.00 59 1013.0
20260904174556 92 260 0.0 3.0 0.00 0.00 0.00 58 1013.2
20260904173015 92 255 0.0 2.0 0.00 0.00 0.00 60 1013.4
20260904170002 92 140 0.0 0.0 0.00 0.00 0.00 58 1013.8
20260904164558 92 88 0.0 4.0 0.00 0.00 0.00 60 1013.9
20260904154650 88 85 0.0 2.0 0.00 0.00 0.00 70 1013.9
20260904151505 84 90 0.0 2.0 0.00 0.00 0.00 81 1013.8
20260904144651 82 175 0.0 0.0 0.00 0.00 0.00 86 1013.9
20260904143028 81 140 0.0 1.0 0.00 0.00 0.00 88 1013.8
20260904141648 80 251 0.0 0.0 0.00 0.00 0.00 89 1013.8
20260904133124 78 252 0.0 0.0 0.00 0.00 0.00 93 1013.6
20260904124658 75 136 0.0 0.0 0.00 0.00 0.00 96 1013.2
20260904121645 74 136 0.0 0.0 0.00 0.00 0.00 95 1013.0
20260904120011 74 136 0.0 0.0 0.00 0.00 0.00 94 1012.8
20260904113141 75 136 0.0 0.0 0.00 0.00 0.00 94 1012.7
20260904111653 75 136 0.0 0.0 0.00 0.00 0.00 94 1012.7
20260904101648 75 136 0.0 0.0 0.00 0.09 0.00 93 1012.5
20260904084558 76 136 0.0 0.0 0.00 0.71 0.00 92 1012.1
20260904080020 76 136 0.0 0.0 0.00 0.81 0.00 92 1011.9
20260904074638 76 136 0.0 0.0 0.00 0.81 0.00 92 1011.9
20260904073116 76 136 0.0 0.0 0.00 0.81 0.00 92 1011.9
20260904071515 76 136 0.0 0.0 0.00 1.67 0.00 91 1011.9
20260904070059 76 136 0.0 0.0 0.00 1.67 0.00 91 1011.9
20260904064526 76 136 0.0 0.0 0.00 1.67 0.00 90 1012.0
20260904063101 77 136 0.0 0.0 0.00 1.67 0.00 90 1012.0
20260904061548 77 136 0.0 0.0 0.00 1.88 0.00 89 1012.0
20260904060014 77 136 0.0 0.0 0.00 1.88 0.00 88 1011.8
20260904054529 77 136 0.0 0.0 0.00 1.88 0.00 87 1011.8
20260904053028 78 136 0.0 0.0 0.00 1.88 0.00 86 1011.7
20260904051552 78 136 0.0 0.0 0.00 1.89 1.88 85 1011.7
20260904044510 79 136 0.0 0.0 0.00 1.89 1.88 83 1011.9
20260904043104 79 136 0.0 0.0 0.00 1.89 1.88 82 1012.0
20260904030115 81 130 0.0 0.0 0.00 2.27 1.88 78 1011.9
20260904014513 83 86 0.0 0.0 0.00 2.45 1.88 74 1011.0
20260903234647 90 269 0.0 2.0 0.00 2.45 1.88 62 1010.1